Location: Allison Elementary School
(34.0784°N, 117.7317°W)
Time: 16:33:19
(UTC+00:00)

Lacrosse 4 Rocket - Pass Details

Date: 15 November 2019
Orbit: 543 x 616 km, 68.0° (Epoch: 14 December)

Event Time Altitude Azimuth Distance (km) Brightness Sun altitude
Rises 02:13:18 0° 219° (SW) 2,726 5.7 -17.8°
Reaches altitude 10° 02:15:36 10° 226° (SW) 1,825 4.8 -18.3°
Maximum altitude 02:19:28 41° 298° (WNW) 799 2.5 -19.1°
Enters shadow 02:22:46 13° 7° (N) 1,613 3.5 -19.7°
